Вернуться в каталог

STARLINK-34150

АктивенСвязьVLEO
NORAD 63998·PAYLOAD·🇺🇸 United States

Запущен May 14, 2025 с Cape Canaveral Space Force Station

Loading…

Ближайшие Пролёты (ближайшие 24 часа)

TLE

СвежийSource: CelesTrak SupGP

Эпоха: Sep 15, 2026, 04:03 UTC

1 63998C 25101E   26258.16923611  .00038956  00000+0  14110-2 0  2583
2 63998  43.0018   8.1038 0001512 260.3368   9.1868 15.27557917    12

Отслеживайте STARLINK-34150 в реальном времени с AllMySat

Download on the App Store